"Pseudo-MPEC" for C0MWC12

Created 2019 May 21 8:07:11 UT using Find_Orb

Click here for an explanation of pseudo-MPECs

 
 Astrometry: 
     C0MWC12  C2019 05 15.38309 20 25 05.24 -01 17 59.7    ~5FA7 20.7 GVNEOCPG96
     C0MWC12  C2019 05 15.38875 20 25 05.58 -01 17 49.2    ~5FA7 20.2 GVNEOCPG96
     C0MWC12  C2019 05 15.39440 20 25 05.94 -01 17 38.2    ~5FA7 20.8 GVNEOCPG96
     C0MWC12  C2019 05 15.40007 20 25 06.31 -01 17 26.4    ~5FA7 19.7 GVNEOCPG96
     C0MWC12  C2019 05 15.41865520 25 07.40 -01 16 50.3    ~5FAq 20.0 GVNEOCPH01
     C0MWC12  C2019 05 15.42256720 25 07.64 -01 16 42.6    ~5FAq 20.0 GVNEOCPH01
     C0MWC12  C2019 05 15.43215220 25 08.22 -01 16 23.7    ~5FAq 20.1 GVNEOCPH01
     C0MWC12  C2019 05 15.43913220 25 08.64 -01 16 09.9    ~5FAq 19.9 GVNEOCPH01
     C0MWC12  C2019 05 15.46502 20 25 10.21 -01 15 19.6    ~5FBb 19.6 GVNEOCPI52
     C0MWC12  C2019 05 15.46581 20 25 10.33 -01 15 18.0    ~5FBb 19.5 GVNEOCPI52
     C0MWC12  C2019 05 15.46660 20 25 10.30 -01 15 16.1    ~5FBb 19.7 GVNEOCPI52
     C0MWC12  C2019 05 16.46419 20 26 12.03 -00 42 17.2    ~5GBq 20.5 GVNEOCPG96
     C0MWC12  C2019 05 16.46505 20 26 12.09 -00 42 15.8    ~5GBq 20.6 GVNEOCPG96
     C0MWC12  C2019 05 16.46610 20 26 12.12 -00 42 14.3    ~5GBq 20.5 GVNEOCPG96
     C0MWC12  C2019 05 16.46685 20 26 12.17 -00 42 12.0    ~5GBq 20.6 GVNEOCPG96
     C0MWC12  C2019 05 16.46761 20 26 12.21 -00 42 10.8    ~5GBq 20.7 GVNEOCPG96
     C0MWC12  C2019 05 16.46836 20 26 12.27 -00 42 08.5    ~5GBq 21.2 GVNEOCPG96
     C0MWC12  C2019 05 16.46935 20 26 12.35 -00 42 06.6    ~5GBq 20.5 GVNEOCPG96
     C0MWC12  C2019 05 16.47057 20 26 12.43 -00 42 04.2    ~5GBq 20.4 GVNEOCPG96

Station data:
(G96) Mt. Lemmon Survey  (N32.442754 W110.788720)  US/Arizona.  Observers T.
   A. Pruyne, B. M. Africano, E. J. Christensen, G. A. Farneth, D. C. Fuls,
   A. R. Gibbs, A. D. Grauer, H. Groeller, J. A. Johnson, R. A. Kowalski, S.
   M. Larson, G. J. Leonard, R. L. Seaman, F. C. Shelly. 1.5-m reflector +
   10K CCD.
(H01) Magdalena Ridge Observatory, Socorro  (N33.984833 W107.189333)  US/New
   Mexico.  Observers W. H. Ryan, E. V. Ryan. Measurer W. H. Ryan. 2.4-m
   f/8.9 reflector + CCD.
(I52) Steward Observatory, Mt. Lemmon Station  (N32.442547 W110.788920)
   US/Arizona.  Observers T. A. Pruyne, B. M. Africano, E. J. Christensen, G.
   A. Farneth, D. C. Fuls, A. R. Gibbs, A. D. Grauer, H. Groeller, J. A.
   Johnson, R. A. Kowalski, S. M. Larson, G. J. Leonard, R. L. Seaman, F. C.
   Shelly. 1.0-m reflector + CCD.

Orbital elements:  C0MWC12
   Perihelion 2019 Mar 29.495479 +/- 122 TT = 11:53:29 (JD 2458571.995479)
Epoch 2019 May 16.0 TT = JDT 2458619.5   Earth MOID: 0.4540   Ma: 0.0532
M  11.32568815 +/- 60               (J2000 ecliptic)          AutoNEOCP
n   0.23841284 +/- 0.166            Peri.  356.98027 +/- 80
a   2.57582454 +/- 1.2              Node   242.65100 +/- 8
e   0.4308106 +/- 0.171             Incl.   23.09058 +/- 6
P   4.13                   H 18.3   G  0.15   U 11.5  SR
q 1.46613196 +/- 0.277    Q 3.68551711 +/- 1.94
From 19 observations 2019 May 15-16 (26.1 hr); mean residual 0".50
Residuals in arcseconds: 
190515 G96  .51-  1.1+    190515 H01  .19+  .04+    190516 G96  .24-  .01+    
190515 G96  .57-  .40+    190515 I52  .05-  1.2-    190516 G96  .29-  .29-    
190515 G96  .32-  .20+    190515 I52  1.0+  1.2-    190516 G96  .04-  .52+    
190515 G96  .07+  .76+    190515 I52  .12-  .84-    190516 G96  .31+  .46+    
190515 H01  .06+  .24+    190516 G96  .05-  .09+    190516 G96  .46+  .44+    
190515 H01  .13+  .18+    190516 G96  .11+  .22-    
190515 H01  .18+  .08+    190516 G96  .34-  .80-    

Ephemerides (geocentric):
Date (UTC) HH   RA              Dec         delta   r     elong  mag " sig PA
---- -- -- --  -------------   -----------  ------ ------ -----  --- ---- ---
2019 05 21 08  20 30 38.881   +01 58 16.91  .89708 1.5450 107.9 20.6  300 121
2019 05 21 09  20 30 40.918   +01 59 38.98  .89696 1.5452 107.9 20.6  304 121
2019 05 21 10  20 30 42.950   +02 01 01.05  .89684 1.5453 107.9 20.6  309 121
2019 05 21 11  20 30 44.977   +02 02 23.10  .89672 1.5454 108.0 20.6  314 120
2019 05 21 12  20 30 47.001   +02 03 45.15  .89660 1.5455 108.0 20.6  319 120
2019 05 21 13  20 30 49.020   +02 05 07.20  .89649 1.5456 108.0 20.6  324 120
2019 05 21 14  20 30 51.035   +02 06 29.23  .89637 1.5458 108.0 20.6  329 120
2019 05 21 15  20 30 53.045   +02 07 51.26  .89625 1.5459 108.1 20.6  334 120
2019 05 21 16  20 30 55.052   +02 09 13.28  .89613 1.5460 108.1 20.6  339 120
2019 05 21 17  20 30 57.054   +02 10 35.29  .89601 1.5461 108.1 20.6  344 120
2019 05 21 18  20 30 59.051   +02 11 57.29  .89590 1.5462 108.1 20.6  349 120
2019 05 21 19  20 31 01.045   +02 13 19.28  .89578 1.5464 108.1 20.6  354 120
2019 05 21 20  20 31 03.034   +02 14 41.27  .89566 1.5465 108.2 20.6  360 120
2019 05 21 21  20 31 05.019   +02 16 03.25  .89555 1.5466 108.2 20.6  365 120
2019 05 21 22  20 31 07.000   +02 17 25.22  .89543 1.5467 108.2 20.6  370 120
2019 05 21 23  20 31 08.976   +02 18 47.18  .89531 1.5468 108.2 20.5  375 120
2019 05 22 00  20 31 10.948   +02 20 09.13  .89520 1.5470 108.2 20.5  381 120
2019 05 22 01  20 31 12.916   +02 21 31.07  .89508 1.5471 108.3 20.5  386 120
2019 05 22 02  20 31 14.879   +02 22 53.01  .89497 1.5472 108.3 20.5  392 120
2019 05 22 03  20 31 16.839   +02 24 14.94  .89485 1.5473 108.3 20.5  397 120
2019 05 22 04  20 31 18.794   +02 25 36.85  .89473 1.5474 108.3 20.5  403 120
2019 05 22 05  20 31 20.744   +02 26 58.76  .89462 1.5476 108.3 20.5  408 120
2019 05 22 06  20 31 22.691   +02 28 20.66  .89450 1.5477 108.4 20.5  414 120
2019 05 22 07  20 31 24.633   +02 29 42.56  .89439 1.5478 108.4 20.5  419 120
2019 05 22 08  20 31 26.570   +02 31 04.44  .89427 1.5479 108.4 20.5  425 120
2019 05 22 09  20 31 28.504   +02 32 26.31  .89416 1.5480 108.4 20.5  431 120
2019 05 22 10  20 31 30.433   +02 33 48.18  .89404 1.5482 108.5 20.5  436 120
2019 05 22 11  20 31 32.358   +02 35 10.03  .89393 1.5483 108.5 20.5  442 120
2019 05 22 12  20 31 34.278   +02 36 31.88  .89381 1.5484 108.5 20.5  448 120
2019 05 22 13  20 31 36.195   +02 37 53.72  .89370 1.5485 108.5 20.5  454 120
2019 05 22 14  20 31 38.107   +02 39 15.55  .89358 1.5486 108.5 20.5  460 120
2019 05 22 15  20 31 40.014   +02 40 37.37  .89347 1.5488 108.6 20.5  466 120
2019 05 22 16  20 31 41.918   +02 41 59.18  .89336 1.5489 108.6 20.5  472 120
2019 05 22 17  20 31 43.817   +02 43 20.98  .89324 1.5490 108.6 20.5  478 120
2019 05 22 18  20 31 45.712   +02 44 42.77  .89313 1.5491 108.6 20.5  484 120
2019 05 22 19  20 31 47.602   +02 46 04.55  .89302 1.5493 108.6 20.5  490 120
2019 05 22 20  20 31 49.488   +02 47 26.32  .89290 1.5494 108.7 20.5  496 120
2019 05 22 21  20 31 51.370   +02 48 48.09  .89279 1.5495 108.7 20.5  502 120
2019 05 22 22  20 31 53.247   +02 50 09.84  .89268 1.5496 108.7 20.5  508 120
2019 05 22 23  20 31 55.121   +02 51 31.58  .89256 1.5497 108.7 20.5  515 120
2019 05 23 00  20 31 56.989   +02 52 53.32  .89245 1.5499 108.7 20.5  521 120
2019 05 23 01  20 31 58.854   +02 54 15.04  .89234 1.5500 108.8 20.5  527 120
2019 05 23 02  20 32 00.714   +02 55 36.75  .89223 1.5501 108.8 20.5  534 120
2019 05 23 03  20 32 02.570   +02 56 58.46  .89211 1.5502 108.8 20.5  540 120
2019 05 23 04  20 32 04.422   +02 58 20.15  .89200 1.5503 108.8 20.5  546 120
2019 05 23 05  20 32 06.269   +02 59 41.83  .89189 1.5505 108.9 20.5  553 120
2019 05 23 06  20 32 08.112   +03 01 03.51  .89178 1.5506 108.9 20.5  559 120
2019 05 23 07  20 32 09.951   +03 02 25.17  .89167 1.5507 108.9 20.5  566 120